Погода Казанская

Погода Казанская : погода сейчас, прогноз погоды и архив. Всё, что Вы хотите узнать о погоде Казанская!

Хотите узнать прогноз погоды Казанская? Тогда Вам сюда: Погода Казанская

Поиск расширенной информации на нашем сайте:

Другие новости

Новости СМИ2

Главная страница сайта

Новости сайта

03.07.2017

Напоминаем, что на нашем специализированном сайте Метеоцентр.Азия вы можете получить высокодетализированные автоматические прогнозы погоды по пунктам России, СНГ и мира в авиационном формате (включающие направление и скорость ветра, видимость, явления погоды, количество и форму облачности, нижнюю и верхнюю границу облачности).


Погода Казанская - сегодня

Время (UTC), дата Ветер
(°,м/с) 
Видим.   Явления Облачность Т
(°С)
Тd
(°С)
f(%) Тe
(°С)
Pmin
(гПа)
dP
(гПа)
Po
(мм)
O2
(г/м3)
Тmin Tmax R s Состояние
почвы
15 17.10.17 290 (З) 20000 м    10/0 средняя 
[Ac As]
+10.5 +7.4 81 +10  1016  1.3  756  292    +13       
18 17.10.17 300 (СЗ) 20000 м    10/0 средняя, верхняя 
[Ac trans|Cs]
+9.5 +8.3 92 +10  1017.1  1.1  756  293           
21 17.10.17 300 (СЗ) 10 км    10/0 верхняя 
[Cs]
+8.4 +7.6 95 +8  1018.5  1.3  757  295           
00 18.10.17 290 (З) 10 км    10/0 верхняя 
[Cs]
+6 +5.7 98 +7  1020.4  1.7  759  298           
03 18.10.17 090 (В) 4000 м  дымка  10/0 верхняя 
[Cs]
+3.5 +3.3 99 +4  1021.4  0.9  759  302  +3.5         
06 18.10.17 тихо ()   0500 м  туман  ?/?  
+5.2 +5.2 100 +5  1021.5  0.2  760  299  +2.3         
09 18.10.17 240 (ЮЗ) 20000 м  {туман}  ясно 
+14.8 +8.2 65 +15  1020.6  -0.6  759  289           
12 18.10.17 240 (ЮЗ) 4{10}  20000 м  {туман}  ясно 
+16.6 +7.1 53 +17  1018.4  -0.6  757  287           
15 18.10.17 220 (ЮЗ) 20000 м    3/0 верхняя 
[Ci fib]
+13.8 +9.2 74 +14  1017.9  -0.6  757  289    +17       
18 18.10.17 240 (ЮЗ) 4{11}  20000 м    ясно 
+13.3 +8.6 73 +13  1017  -0.8  756  289           
21 18.10.17 240 (ЮЗ) 5{10}  20000 м    ясно 
+12.4 +9.2 81 +12  1016.6  -0.5  756  290           
00 19.10.17 270 (З) 20000 м    ясно 
+11.6 +9.3 86 +11  1016.5  0.1  756  291           
03 19.10.17 290 (З) 20000 м    3/0 верхняя 
[Ci fib]
+11.2 +9.3 88 +11  1015.9  -0.6  755  291  +10.9        влажная 
06 19.10.17 260 (З) 10 км    6/0 верхняя 
[Ci]
+12.2 +9.7 85 +14  1016.3  0.4  756  290           
09 19.10.17 280 (З) 20000 м    10/6 600 м верхняя 
[Sc|Cs]
+16.2 +11.3 73 +20  1016.1  756  285           
12 19.10.17 330 (СЗ) 20000 м    10/8 600 м верхняя 
[Sc|Cs]
+17.5 +11.9 70 +22  1015.6  -0.5  755  284           
15 19.10.17 330 (СЗ) 20000 м    10/10 600 м 
[Sc]
+13.7 +11.1 84 +16  1016.6  0.9  756  288    +18.7       
18 19.10.17 310 (СЗ) 20000 м    10/10 600 м 
[Sc]
+12.5 +10.9 90 +16  1017  0.9  756  289           
21 19.10.17 330 (СЗ) 4000 м    10/10 600 м 
[Sc]
+10.6 +10.1 97 +12  1017.6  0.5  757  292           
00 20.10.17 тихо ()   4000 м  дымка  10/10 600 м 
[Sc]
+10.6 +9.9 95 +11  1017.9  0.5  757  292           
03 20.10.17 тихо ()   4000 м  дымка  8/4 600 м средняя 
[Sc|Ac As]
+8.5 +7.9 96 +9  1018.5  0.5  757  295  +8.5         
06 20.10.17 080 (В) 20000 м    9/9 1000 м 
[Sc]
+8.7 +4.9 77 +10  1019.6  1.1  758  295  +7.2         
09 20.10.17 070 (В) 20000 м    8/5 600 м кучево-дожд., верхняя 
[Cb cap|Cc]
+13.6 +3.4 50 +14  1019.6  0.1  758  291           
12 20.10.17 050 (СВ) 20000 м    10/10 1000 м 
[Sc]
+13.1 +1.9 46 +14  1019.2  -0.4  758  291           
15 20.10.17 060 (СВ) 20000 м    10/10 600 м 
[Sc]
+11.1 +2.2 54 +12  1019.8  0.5  758  293    +13.9       
Время (UTC), дата Ветер
(°,м/с) 
Видим.   Явления Облачность Т
(°С)
Тd
(°С)
f(%) Тe
(°С)
Pmin
(гПа)
dP
(гПа)
Po
(мм)
O2
(г/м3)
Тmin Tmax R s Состояние
почвы

Для получения пояснительной информации подведите курсор к названию столбца.

ПОГОДА Казанская - архив

Всё, что Вы хотите узнать о погоде Казанская - удобно и подробно!

Выберите нужную дату (начиная с 1 января 2015* года) и нажмите кнопку "Найти".
Будут отображены архивные сводки погоды по пункту Казанская, начиная с указанной даты.


Отображать данные в формате CSV (для использования в таблицах Excel)


Внимание! Наш архив погоды предназначен исключительно для личного некоммерческого использования в познавательных целях. Если Вам необходимы официальные справки о состоянии погоды (для производственных, юридических, коммерческих и т.п. целей), обращайтесь в органы Росгидромета.

*Примечание: данная дата относится к архиву по метеостанциям СССР (Россия, СНГ, Балтия).
Архив по метеостанциям Зарубежной Европы и Азии (кроме Китая) хранится 10 дней, по другим регионам земного шара (Китай, Африка, Америка, Австралия, Океания) - 1 день.

Казанская - район местоположения метеостанции


Название, широта, долгота, высота метеостанции:
Казанская 49.8°ш. 41.2°д. 72 м над ур. моря [Российская Федерация]

Дополнительная информация

В oтличие oт бoльшинства пoгoдных сайтoв мы публикуем пoдрoбную метеoинфoрмацию в детальнoм прoфессиoнальнoм фoрмате.

Характеристики температуры и влажнoсти вoздуха измеряются на высoте 2 м в тени вдали oт зданий и деревьев.
Скoрoсть ветра измеряется на высoте 10 м (на урoвне рoста челoвека скoрoсть ветра ниже в 1.5-2 раза). Если метеoстанция нахoдится в гoрoде или в лесу, тo скoрoсть ветра занижена на 2-4 м/с пo сравнению с oткрытым местoм. Скoрoсть ветра над акватoриями крупных рек и oзёр, а также на вершинах хoлмoв на 2-5 м/с выше, чем в oбычных услoвиях.
Атмoсфернoе давление в разных тoчках местнoсти мoжет значительнo oтличаться oт давления на метеoстанции, в зависимoсти oт услoвий рельефа (при пoдъёме на 10 м давление пoнижается примернo на 1 мм рт.ст.).